Meath Environmental Platform

Observations for Trim Market St

Time AQI Temp °C Hum % Pres Pa CO μg/m³ H₂S μg/m³ NO μg/m³ NO₂ μg/m³ O₃ μg/m³ SO₂ μg/m³ PM1 μg/m³ PM2.5 μg/m³ PM10 μg/m³
Wednesday 26 August 2026
00:08 2 16.6 84 2,147,483,647 0.29 0 1.41 14.91 35.31 0 6.41 7.5 11.32
00:07 2 16.6 84 2,147,483,647 0.3 0 1.48 18.76 36.8 0 3.56 5.64 9.7
00:06 2 16.6 84 2,147,483,647 0.3 0 1.64 15.58 35.05 0 6.41 7.5 11.87
00:05 2 16.6 84 2,147,483,647 0.3 0 1.71 13.26 42.03 0 7.84 9.37 14.04
00:03 2 16.6 84 2,147,483,647 0.32 0 1.45 21.93 38.71 0 5.7 6.11 10.24
00:02 2 16.6 84 2,147,483,647 0.31 0 1.45 20.95 39.1 0 6.41 7.04 10.79
00:01 2 16.6 84 2,147,483,647 0.31 0 1.45 15.38 35.61 0 7.84 8.62 11.33
00:00 2 16.6 84 2,147,483,647 0.28 0 1.37 17.77 33.75 0 6.41 7.04 11.33
Tuesday 25 August 2026
23:59 2 16.6 84 2,147,483,647 0.29 0 1.45 14.47 34.14 0 6.41 8.44 12.96
23:58 2 16.6 84 2,147,483,647 0.29 0 1.34 15.83 39.38 0 5.7 7.51 12.41
23:56 2 16.6 84 2,147,483,647 0.29 0 1.38 17.13 31.68 0 6.41 7.97 11.87
23:55 2 16.6 84 2,147,483,647 0.28 0 1.27 14.75 37.77 0 4.99 6.11 9.7
23:54 2 16.6 84 2,147,483,647 0.3 0 1.17 20.1 37.11 0 6.41 8.44 12.41
23:50 2 16.6 84 2,147,483,647 0.31 0 1.34 14.48 45.25 0 7.13 7.97 12.96
23:48 2 16.6 84 2,147,483,647 0.29 0 1.51 17.47 41.44 0 7.84 8.62 11.33
23:46 2 16.6 84 2,147,483,647 0.31 0 1.48 18.77 35.1 0 5.7 7.51 11.33
23:43 2 16.7 84 2,147,483,647 0.3 0 1.12 17.29 32.89 0 7.13 7.52 11.88
23:41 2 16.7 84 2,147,483,647 0.3 0 1.3 14.61 35.4 0 6.41 7.04 10.79
23:33 2 16.7 84 2,147,483,647 0.29 0 1.41 20.24 37.46 0 6.41 7.52 12.42
23:32 2 16.7 84 2,147,483,647 0.3 0 1.45 18.26 36.05 0 4.99 6.12 9.7